SQ2HCW-13 Weather Reports


Display with metric or nautical units.
time (UTC)temp
F
wind
direction
speed
MPH
gust
MPH
rain 1hr
in
rain 24hr
in
rain mn
in
humidity
%
barometer
mb
20260905203019 56 0.0 0.0 0.00 0.08 0.08 99 1000.3
20260905202036 56 0.0 0.0 0.00 0.08 0.08 99 1000.2
20260905201112 56 0.0 0.0 0.00 0.08 0.08 99 1000.2
20260905200109 56 0.0 0.0 0.00 0.08 0.08 99 1000.1
20260905195106 56 0.0 0.0 0.00 0.08 0.08 99 1000.1
20260905194103 56 0.0 0.0 0.00 0.08 0.08 99 999.9
20260905193100 56 0.0 0.0 0.00 0.08 0.08 99 999.8
20260905191053 56 0.0 0.0 0.00 0.09 0.08 99 999.8
20260905190050 56 0.0 0.0 0.00 0.09 0.08 99 999.8
20260905185047 56 0.0 0.0 0.00 0.09 0.08 99 999.6
20260905184104 57 0.0 0.0 0.00 0.09 0.08 99 999.6
20260905183041 57 0.0 0.0 0.00 0.09 0.08 99 999.4
20260905182038 56 0.0 0.0 0.00 0.09 0.08 99 999.4
20260905181035 56 0.0 0.0 0.00 0.09 0.08 99 999.4
20260905180051 56 0.0 0.0 0.00 0.09 0.08 99 999.3
20260905175028 56 0.0 0.0 0.00 0.09 0.08 99 999.3
20260905174025 55 0.0 0.0 0.00 0.09 0.08 99 999.3
20260905173022 55 0.0 0.0 0.01 0.09 0.08 99 999.3
20260905172019 56 0.0 0.0 0.01 0.09 0.08 99 999.0
20260905171016 56 0.0 0.0 0.01 0.09 0.08 99 999.0
20260905170133 56 0.0 0.0 0.01 0.09 0.08 97 999.0
20260905165110 58 0.0 0.0 0.01 0.18 0.08 92 999.1
20260905164127 61 0.0 1.0 0.01 0.20 0.08 90 998.5
20260905163103 63 0.0 0.0 0.00 0.19 0.07 83 997.8
20260905162100 63 0.0 0.0 0.00 0.19 0.07 84 998.0
20260905161118 63 0.0 0.0 0.00 0.19 0.07 85 997.9
20260905160054 62 0.0 0.0 0.00 0.19 0.07 85 997.7
20260905155051 62 0.0 0.0 0.00 0.19 0.07 83 997.8
20260905154042 63 0.0 0.0 0.00 0.19 0.07 81 997.9
20260905153059 64 0.0 0.0 0.00 0.19 0.07 80 997.8
20260905152030 67 0.0 0.0 0.00 0.19 0.07 71 997.8
20260905151027 68 0.0 0.0 0.00 0.19 0.07 68 997.7
20260905150018 69 0.0 0.0 0.00 0.19 0.07 66 997.5
20260905145115 67 0.0 0.0 0.00 0.19 0.07 68 997.5
20260905144106 69 0.0 0.0 0.00 0.19 0.07 68 997.6
20260905143103 70 0.0 0.0 0.00 0.19 0.07 65 997.5
20260905142054 71 0.0 0.0 0.00 0.19 0.07 63 997.6
20260905141050 70 0.0 0.0 0.00 0.19 0.07 62 997.6
20260905140041 70 0.0 0.0 0.00 0.19 0.07 64 997.5
20260905135038 69 0.0 0.0 0.00 0.19 0.07 69 997.7
20260905134050 70 0.0 0.0 0.00 0.19 0.07 68 997.9
20260905133028 69 0.0 0.0 0.00 0.19 0.07 74 997.9
20260905132018 65 0.0 0.0 0.00 0.19 0.07 79 997.8
20260905131115 64 0.0 0.0 0.00 0.19 0.07 77 997.8
20260905130106 64 0.0 0.0 0.00 0.19 0.07 77 997.8
20260905125103 66 0.0 0.0 0.00 0.19 0.07 81 997.8
20260905124054 65 0.0 0.0 0.00 0.19 0.07 78 997.7
20260905123111 65 0.0 0.0 0.00 0.19 0.07 78 997.5
20260905122041 67 0.0 0.0 0.00 0.19 0.07 74 997.5
20260905121100 70 0.0 0.0 0.00 0.19 0.07 69 997.4
20260905120050 70 0.0 0.0 0.00 0.19 0.07 68 997.3
20260905115027 67 0.0 0.0 0.00 0.19 0.07 76 997.3
20260905114018 67 0.0 0.0 0.00 0.19 0.07 72 997.5
20260905113115 70 0.0 0.0 0.00 0.19 0.07 66 997.4
20260905112106 70 0.0 0.0 0.00 0.19 0.07 66 997.4
20260905111103 69 0.0 0.0 0.00 0.19 0.07 67 997.5
20260905105050 70 0.0 0.0 0.00 0.19 0.07 70 997.5
20260905104041 68 0.0 0.0 0.00 0.19 0.07 72 997.4
20260905103038 67 0.0 0.0 0.00 0.19 0.07 73 997.5
20260905102030 67 0.0 0.0 0.00 0.19 0.07 76 997.4
20260905100018 65 0.0 0.0 0.00 0.19 0.07 78 997.4
20260905095115 65 0.0 0.0 0.00 0.19 0.07 76 997.4
20260905094106 68 0.0 0.0 0.00 0.19 0.07 73 997.3
20260905093103 67 0.0 0.0 0.00 0.19 0.07 73 997.4
20260905092054 67 0.0 0.0 0.00 0.19 0.07 72 997.2
20260905091051 67 0.0 0.0 0.00 0.19 0.07 73 997.1
20260905090041 67 0.0 0.0 0.00 0.19 0.07 73 997.0
20260905085058 66 0.0 0.0 0.00 0.19 0.07 77 996.9
20260905084030 67 0.0 0.0 0.00 0.19 0.07 74 997.0
20260905083027 66 0.0 0.0 0.00 0.19 0.07 77 996.7
20260905082018 66 0.0 0.0 0.00 0.19 0.07 79 996.7
20260905081115 64 0.0 0.0 0.00 0.19 0.07 81 996.6
20260905080106 64 0.0 0.0 0.00 0.19 0.07 83 996.7
20260905075123 63 0.0 1.0 0.00 0.19 0.07 83 996.4
20260905074054 62 0.0 0.0 0.00 0.19 0.07 85 996.3
20260905073050 62 0.0 0.0 0.00 0.19 0.07 86 996.2
20260905072102 62 0.0 0.0 0.00 0.19 0.07 88 996.2
20260905071038 62 0.0 0.0 0.00 0.19 0.07 89 996.0
20260905070030 62 0.0 0.0 0.00 0.19 0.07 89 995.9
20260905065027 62 0.0 0.0 0.00 0.19 0.07 89 995.9
20260905064018 62 0.0 0.0 0.00 0.19 0.07 90 995.8
20260905063115 62 0.0 0.0 0.00 0.19 0.07 91 995.7
20260905062106 62 0.0 0.0 0.00 0.19 0.07 91 995.6
20260905061103 62 0.0 0.0 0.00 0.19 0.07 90 995.4
20260905060054 62 0.0 0.0 0.00 0.19 0.07 91 995.3
20260905055051 61 0.0 0.0 0.00 0.19 0.07 94 995.3
20260905054041 61 0.0 0.0 0.00 0.19 0.07 94 995.1
20260905053038 61 0.0 0.0 0.00 0.19 0.07 93 994.9
20260905052030 61 0.0 0.0 0.00 0.19 0.07 96 994.9
20260905051047 60 0.0 0.0 0.00 0.19 0.07 99 994.7
20260905050018 59 0.0 0.0 0.00 0.19 0.07 99 994.7
20260905045135 59 0.0 0.0 0.00 0.19 0.07 99 994.4
20260905044106 58 0.0 0.0 0.00 0.19 0.07 99 994.1
20260905043103 58 0.0 0.0 0.00 0.19 0.07 99 994.1
20260905042114 58 0.0 0.0 0.00 0.19 0.07 99 994.0
20260905041050 58 0.0 0.0 0.00 0.19 0.07 99 993.9
20260905040041 58 0.0 0.0 0.00 0.19 0.07 99 993.9
20260905035058 58 0.0 0.0 0.00 0.19 0.07 97 993.8
20260905034030 58 0.0 0.0 0.00 0.19 0.07 97 993.7
20260905033027 58 0.0 0.0 0.00 0.19 0.07 97 993.7
20260905032018 58 0.0 0.0 0.00 0.19 0.07 98 993.6
20260905031115 58 0.0 0.0 0.00 0.19 0.07 97 993.6
20260905030106 58 0.0 0.0 0.00 0.19 0.07 97 993.7
20260905025103 58 0.0 0.0 0.00 0.19 0.07 96 993.5
20260905024053 58 0.0 0.0 0.00 0.19 0.07 96 993.4
20260905023050 58 0.0 0.0 0.00 0.19 0.07 96 993.5
20260905022042 58 0.0 0.0 0.00 0.19 0.07 97 993.4
20260905021038 58 0.0 0.0 0.00 0.19 0.07 98 993.3
20260905020030 58 0.0 0.0 0.00 0.19 0.07 98 993.1
20260905015027 58 0.0 0.0 0.00 0.19 0.07 98 992.9
20260905014018 58 0.0 0.0 0.00 0.19 0.07 99 992.8
20260905013115 59 0.0 0.0 0.00 0.19 0.07 99 992.9
20260905012106 59 0.0 0.0 0.00 0.19 0.07 99 992.8
20260905011103 59 0.0 0.0 0.07 0.19 0.07 99 992.4
20260905010054 60 0.0 0.0 0.07 0.19 0.07 99 992.3
20260905005050 60 0.0 0.0 0.07 0.19 0.07 99 992.0
20260905004102 60 0.0 0.0 0.07 0.19 0.07 99 991.8
20260905003038 60 0.0 1.0 0.07 0.19 0.07 99 991.7
20260905002030 61 0.0 0.0 0.07 0.19 0.07 99 991.6
20260905001027 62 0.0 0.0 0.00 0.12 0.00 99 991.6
20260905000018 62 0.0 0.0 0.00 0.12 0.00 99 991.5
20260904235115 62 0.0 0.0 0.00 0.12 0.00 99 991.1
20260904234106 62 0.0 0.0 0.00 0.12 0.00 99 990.8
20260904233103 62 0.0 0.0 0.00 0.12 0.00 99 990.9
20260904232054 63 0.0 0.0 0.00 0.12 0.00 99 990.9
20260904231111 63 0.0 0.0 0.00 0.12 0.00 99 990.7
20260904225059 63 0.0 0.0 0.00 0.12 0.00 99 990.5
20260904224030 63 0.0 0.0 0.00 0.12 0.00 99 990.3
20260904223027 63 0.0 0.0 0.00 0.12 0.00 99 990.1
20260904222018 64 0.0 0.0 0.00 0.12 0.00 99 989.9
20260904221115 64 0.0 0.0 0.00 0.12 0.00 99 989.9
20260904220106 64 0.0 0.0 0.00 0.12 0.00 99 989.7
20260904215103 65 0.0 0.0 0.00 0.12 0.12 99 989.5
20260904214054 65 0.0 0.0 0.00 0.12 0.12 99 989.4
20260904213110 65 0.0 0.0 0.00 0.12 0.12 99 989.4
20260904212041 65 0.0 0.0 0.00 0.12 0.12 99 988.9
20260904211038 65 0.0 0.0 0.00 0.12 0.12 99 989.0
20260904210050 65 0.0 0.0 0.00 0.12 0.12 99 989.0
20260904205027 65 0.0 0.0 0.00 0.12 0.12 99 989.1
20260904204018 65 0.0 0.0 0.00 0.12 0.12 99 989.4